{"data":{"norad_id":66179,"intl_designator":"2025-243C","name":"STARLINK-35346","alt_names":[],"object_type":"PAYLOAD","status":"ACTIVE","operator":null,"country":"US","launch_date":"2025-10-26","launch_site_code":"AFETR","launch_vehicle":null,"mission":null,"orbit_class":"UNKNOWN","rcs_meters":null,"size_class":null,"mass_kg":null,"dimensions":null,"purposes":["comms"],"wikipedia_slug":null,"has_3d_model":false,"image_url":null,"decayed_at":null,"tle_current":{"epoch":"2026-05-24T23:44:50.748000Z","epoch_age_seconds":69962,"freshness":"FRESH","line1":"1 66179U 25243C   26144.98947625  .00029936  00000+0  10187-2 0  9999","line2":"2 66179  53.1570 250.9868 0001088  73.2288 286.8832 15.30203167 32333","mean_motion":15.30203167,"eccentricity":0.0001088,"inclination_deg":53.157,"raan_deg":250.9868,"arg_perigee_deg":73.2288,"mean_anomaly_deg":286.8832,"bstar":0.0010187,"rev_number":3233,"period_min":94.105150940391,"perigee_km":474.45996966816,"apogee_km":475.95125702082,"semimajor_km":6853.3426133445,"source":"CELESTRAK","updated_at":"2026-05-25T13:38:21.075299Z"}}}